TimeEDT,TemperatureF,Dew PointF,Humidity,Sea Level PressureIn,VisibilityMPH,Wind Direction,Wind SpeedMPH,Gust SpeedMPH,PrecipitationIn,Events,Conditions,WindDirDegrees,DateUTC
12:15 AM,75.4,73.0,92,29.91,7.0,SW,4.6,-,N/A,,Scattered Clouds,220,2013-07-10 04:15:00
12:34 AM,76.1,73.6,92,29.90,7.0,SW,5.8,-,N/A,,Mostly Cloudy,220,2013-07-10 04:34:00
12:54 AM,77.0,73.6,89,29.90,10.0,SW,5.8,-,N/A,,Overcast,230,2013-07-10 04:54:00
1:15 AM,77.0,73.4,89,29.90,10.0,SW,4.6,-,N/A,,Scattered Clouds,230,2013-07-10 05:15:00
1:34 AM,77.0,73.2,88,29.90,10.0,WSW,4.6,-,N/A,,Scattered Clouds,240,2013-07-10 05:34:00
1:54 AM,76.8,73.2,89,29.90,10.0,WSW,4.6,-,N/A,,Scattered Clouds,240,2013-07-10 05:54:00
2:14 AM,77.0,73.0,88,29.89,10.0,WSW,4.6,-,N/A,,Scattered Clouds,240,2013-07-10 06:14:00
2:34 AM,76.1,72.7,89,29.88,7.0,WSW,3.5,-,N/A,,Clear,240,2013-07-10 06:34:00
2:54 AM,76.1,72.7,89,29.88,7.0,SW,4.6,-,N/A,,Clear,230,2013-07-10 06:54:00
3:14 AM,76.3,72.9,89,29.88,7.0,WSW,6.9,-,N/A,,Clear,250,2013-07-10 07:14:00
3:35 AM,76.5,72.9,89,29.87,7.0,WSW,3.5,-,N/A,,Clear,240,2013-07-10 07:35:00
3:54 AM,76.5,72.9,89,29.87,7.0,SW,4.6,-,N/A,,Clear,230,2013-07-10 07:54:00
4:14 AM,76.6,73.0,89,29.87,7.0,WSW,5.8,-,N/A,,Clear,240,2013-07-10 08:14:00
4:35 AM,76.3,72.7,89,29.87,7.0,SW,5.8,-,N/A,,Clear,230,2013-07-10 08:35:00
4:54 AM,76.1,72.7,89,29.87,7.0,SW,5.8,-,N/A,,Clear,220,2013-07-10 08:54:00
5:14 AM,75.4,72.5,91,29.87,7.0,SW,4.6,-,N/A,,Clear,220,2013-07-10 09:14:00
5:35 AM,74.8,72.5,92,29.87,5.0,SW,3.5,-,N/A,,Clear,230,2013-07-10 09:35:00
5:54 AM,73.9,71.6,92,29.87,5.0,Calm,Calm,-,N/A,,Clear,0,2013-07-10 09:54:00
6:14 AM,73.2,71.2,93,29.87,4.0,NW,3.5,-,N/A,,Clear,320,2013-07-10 10:14:00
6:34 AM,72.5,70.7,94,29.87,1.8,West,4.6,-,N/A,,Mist,260,2013-07-10 10:34:00
6:54 AM,73.4,71.6,94,29.87,2.0,NW,3.5,-,N/A,,Clear,310,2013-07-10 10:54:00
7:15 AM,73.9,72.5,95,29.87,2.0,West,4.6,-,N/A,,Clear,280,2013-07-10 11:15:00
7:34 AM,74.7,73.0,95,29.87,3.0,WNW,3.5,-,N/A,,Scattered Clouds,300,2013-07-10 11:34:00
7:54 AM,75.6,73.4,93,29.87,4.0,Calm,Calm,-,N/A,,Mostly Cloudy,0,2013-07-10 11:54:00
8:15 AM,77.0,73.8,90,29.87,5.0,West,4.6,-,N/A,,Mostly Cloudy,270,2013-07-10 12:15:00
8:34 AM,78.1,74.3,88,29.86,7.0,West,4.6,-,N/A,,Scattered Clouds,270,2013-07-10 12:34:00
8:54 AM,78.8,73.9,85,29.87,7.0,West,5.8,-,N/A,,Mostly Cloudy,270,2013-07-10 12:54:00
9:15 AM,79.7,74.3,83,29.87,7.0,West,5.8,-,N/A,,Overcast,270,2013-07-10 13:15:00
9:34 AM,80.2,74.7,83,29.86,5.0,WNW,4.6,-,N/A,,Haze,290,2013-07-10 13:34:00
9:54 AM,81.5,74.7,80,29.86,5.0,WNW,8.1,-,N/A,,Haze,290,2013-07-10 13:54:00
10:15 AM,82.0,74.7,78,29.86,7.0,West,6.9,-,N/A,,Mostly Cloudy,280,2013-07-10 14:15:00
10:34 AM,81.5,74.5,79,29.86,7.0,West,6.9,-,N/A,,Mostly Cloudy,280,2013-07-10 14:34:00
10:54 AM,81.7,73.8,77,29.86,10.0,WNW,6.9,18.4,N/A,,Overcast,290,2013-07-10 14:54:00
11:14 AM,82.2,74.3,77,29.85,10.0,West,8.1,-,N/A,,Mostly Cloudy,280,2013-07-10 15:14:00
11:34 AM,82.2,72.9,73,29.86,10.0,WNW,8.1,-,N/A,,Overcast,300,2013-07-10 15:34:00
11:55 AM,82.4,72.9,73,29.85,10.0,WNW,12.7,-,N/A,,Mostly Cloudy,300,2013-07-10 15:55:00
12:14 PM,83.5,72.3,69,29.85,10.0,WNW,13.8,17.3,N/A,,Scattered Clouds,300,2013-07-10 16:14:00
12:34 PM,84.0,71.8,66,29.86,10.0,WNW,17.3,-,N/A,,Scattered Clouds,290,2013-07-10 16:34:00
12:55 PM,82.6,70.7,67,29.86,10.0,WNW,16.1,21.9,N/A,,Scattered Clouds,300,2013-07-10 16:55:00
1:14 PM,81.3,70.7,70,29.86,10.0,WNW,11.5,19.6,N/A,,Scattered Clouds,300,2013-07-10 17:14:00
1:34 PM,80.1,69.8,71,29.87,10.0,WNW,11.5,18.4,N/A,,Mostly Cloudy,300,2013-07-10 17:34:00
1:55 PM,81.7,70.2,68,29.86,10.0,WNW,16.1,24.2,N/A,,Mostly Cloudy,290,2013-07-10 17:55:00
2:14 PM,80.6,69.3,68,29.87,10.0,WNW,17.3,21.9,N/A,,Scattered Clouds,290,2013-07-10 18:14:00
2:34 PM,81.7,68.2,63,29.88,10.0,WNW,17.3,23.0,N/A,,Mostly Cloudy,290,2013-07-10 18:34:00
2:54 PM,80.6,65.8,61,29.90,10.0,WNW,17.3,24.2,N/A,,Scattered Clouds,300,2013-07-10 18:54:00
3:14 PM,79.7,62.8,56,29.91,10.0,WNW,15.0,20.7,N/A,,Clear,290,2013-07-10 19:14:00
3:35 PM,80.2,61.9,53,29.93,10.0,West,15.0,21.9,N/A,,Clear,280,2013-07-10 19:35:00
3:54 PM,79.9,61.3,53,29.92,10.0,NW,15.0,20.7,N/A,,Clear,310,2013-07-10 19:54:00
4:14 PM,78.4,61.7,56,29.92,10.0,West,17.3,20.7,N/A,,Scattered Clouds,280,2013-07-10 20:14:00
4:35 PM,78.6,61.7,56,29.90,10.0,WNW,15.0,20.7,N/A,,Clear,300,2013-07-10 20:35:00
4:54 PM,77.5,61.0,57,29.89,10.0,NW,13.8,20.7,N/A,,Clear,320,2013-07-10 20:54:00
5:14 PM,77.4,61.0,57,29.88,10.0,NW,16.1,20.7,N/A,,Clear,310,2013-07-10 21:14:00
5:35 PM,77.0,60.1,56,29.88,10.0,NW,13.8,19.6,N/A,,Clear,310,2013-07-10 21:35:00
5:54 PM,75.9,58.1,54,29.89,10.0,NW,17.3,21.9,N/A,,Clear,320,2013-07-10 21:54:00
6:15 PM,75.4,55.8,50,29.89,10.0,NW,11.5,18.4,N/A,,Clear,310,2013-07-10 22:15:00
6:34 PM,74.7,54.9,50,29.90,10.0,NNW,8.1,18.4,N/A,,Clear,330,2013-07-10 22:34:00
6:54 PM,73.9,54.0,50,29.90,10.0,NW,15.0,19.6,N/A,,Clear,320,2013-07-10 22:54:00
7:15 PM,73.4,54.5,51,29.91,10.0,NNW,12.7,19.6,N/A,,Clear,330,2013-07-10 23:15:00
7:34 PM,72.9,53.2,50,29.91,10.0,NNW,15.0,20.7,N/A,,Clear,330,2013-07-10 23:34:00
7:54 PM,72.1,53.6,52,29.91,10.0,NNW,11.5,19.6,N/A,,Clear,330,2013-07-10 23:54:00
8:15 PM,71.2,54.3,55,29.92,10.0,NNW,6.9,-,N/A,,Clear,330,2013-07-11 00:15:00
8:34 PM,70.5,54.5,57,29.93,10.0,NW,6.9,-,N/A,,Clear,320,2013-07-11 00:34:00
8:54 PM,69.6,54.9,59,29.94,10.0,NW,5.8,-,N/A,,Clear,320,2013-07-11 00:54:00
9:15 PM,68.0,55.6,64,29.95,10.0,Calm,Calm,-,N/A,,Clear,0,2013-07-11 01:15:00
9:34 PM,67.1,55.8,67,29.96,10.0,NW,3.5,-,N/A,,Clear,310,2013-07-11 01:34:00
9:54 PM,66.2,55.9,69,29.97,10.0,NW,4.6,-,N/A,,Clear,310,2013-07-11 01:54:00
10:14 PM,65.3,55.8,71,29.97,10.0,NNW,3.5,-,N/A,,Clear,340,2013-07-11 02:14:00
10:34 PM,65.1,55.8,72,29.97,10.0,NNW,3.5,-,N/A,,Clear,340,2013-07-11 02:34:00
10:55 PM,64.4,55.9,74,29.98,10.0,NW,3.5,-,N/A,,Clear,320,2013-07-11 02:55:00
11:14 PM,64.0,55.8,74,29.99,10.0,NW,3.5,-,N/A,,Clear,320,2013-07-11 03:14:00
11:34 PM,62.6,56.3,80,30.00,10.0,Calm,Calm,-,N/A,,Clear,0,2013-07-11 03:34:00
11:54 PM,61.7,56.7,84,30.00,10.0,Calm,Calm,-,N/A,,Clear,0,2013-07-11 03:54:00